timestamp,surface_pressure_avg,surface_temp_avg,battery_voltage,lat,long
2022-01-09 00:09:00+00:00,230.5598,3.4,12.65,47.84626,-54.09684
2022-01-09 00:19:00+00:00,225.6815,3.2,12.57,47.84626,-54.09684
2022-01-09 00:29:00+00:00,225.2815,3.2,12.57,47.84626,-54.09684
2022-01-09 00:39:00+00:00,231.1381,3.37,12.57,47.84626,-54.09684
2022-01-09 00:49:00+00:00,232.8997,3.4,12.57,47.84626,-54.09684
2022-01-09 00:59:00+00:00,227.3414,3.4,12.57,47.84626,-54.09684
2022-01-09 01:09:00+00:00,220.6198,3.2,12.57,47.84626,-54.09684
2022-01-09 01:19:00+00:00,226.5364,3.2,12.57,47.84626,-54.09684
2022-01-09 01:29:00+00:00,242.1614,3.4,12.57,47.84626,-54.09684
2022-01-09 01:39:00+00:00,249.058,3.3,12.57,47.84626,-54.09684
2022-01-09 01:49:00+00:00,253.1131,3.3,12.57,47.84626,-54.09684
2022-01-09 01:59:00+00:00,269.9581,3.38,12.57,47.84626,-54.09684
2022-01-09 02:09:00+00:00,289.263,3.4,12.57,47.84626,-54.09684
2022-01-09 02:19:00+00:00,299.8813,3.29,12.57,47.84626,-54.09684
2022-01-09 02:29:00+00:00,311.0131,3.3,12.57,47.84626,-54.09684
2022-01-09 02:39:00+00:00,320.673,3.28,12.57,47.84626,-54.09684
2022-01-09 02:49:00+00:00,328.2446,3.33,12.57,47.84626,-54.09684
2022-01-09 02:59:00+00:00,333.6863,3.34,12.57,47.84626,-54.09684
2022-01-09 03:09:00+00:00,338.6931,3.3,12.57,47.84626,-54.09684
2022-01-09 03:19:00+00:00,343.5997,3.3,12.57,47.84626,-54.09684
2022-01-09 03:29:00+00:00,353.7797,3.3,12.57,47.84626,-54.09684
2022-01-09 03:39:00+00:00,360.67800000000005,3.37,12.57,47.84626,-54.09684
2022-01-09 03:49:00+00:00,364.4479,3.4,12.57,47.84626,-54.09684
2022-01-09 03:59:00+00:00,377.0745,3.4,12.57,47.84626,-54.09684
2022-01-09 04:09:00+00:00,389.0197,3.45,12.57,47.84626,-54.09684
2022-01-09 04:19:00+00:00,390.0563,3.4,12.49,47.84626,-54.09684
2022-01-09 04:29:00+00:00,393.8063,3.3,12.49,47.84626,-54.09684
2022-01-09 04:39:00+00:00,396.3429,3.3,12.49,47.84626,-54.09684
2022-01-09 04:49:00+00:00,396.8146,3.28,12.49,47.84626,-54.09684
2022-01-09 04:59:00+00:00,399.2047,3.29,12.49,47.84626,-54.09684
2022-01-09 05:09:00+00:00,396.6863,3.4,12.49,47.84626,-54.09684
2022-01-09 05:19:00+00:00,387.5112,3.3,12.49,47.84626,-54.09684
2022-01-09 05:29:00+00:00,384.30300000000005,3.29,12.49,47.84626,-54.09684
2022-01-09 05:39:00+00:00,391.8912,3.44,12.49,47.84626,-54.09684
2022-01-09 05:49:00+00:00,390.8612,3.5,12.49,47.84626,-54.09684
2022-01-09 05:59:00+00:00,384.1796,3.6,12.49,47.84626,-54.09684
2022-01-09 06:09:00+00:00,389.0929,3.6,12.49,47.84626,-54.09684
2022-01-09 06:19:00+00:00,385.3314,3.59,12.49,47.84626,-54.09684
2022-01-09 06:29:00+00:00,375.7446,3.4,12.49,47.84626,-54.09684
2022-01-09 06:39:00+00:00,372.8796,3.3,12.49,47.84626,-54.09684
2022-01-09 06:49:00+00:00,371.6812,3.39,12.49,47.84626,-54.09684
2022-01-09 06:59:00+00:00,362.9446,3.4,12.49,47.84626,-54.09684
2022-01-09 07:09:00+00:00,352.848,3.2,12.49,47.84626,-54.09684
2022-01-09 07:19:00+00:00,345.298,3.2,12.49,47.84626,-54.09684
2022-01-09 07:29:00+00:00,335.5963,3.2,12.49,47.84626,-54.09684
2022-01-09 07:39:00+00:00,325.233,3.1,12.49,47.84626,-54.09684
2022-01-09 07:49:00+00:00,318.2681,3.2,12.49,47.84626,-54.09684
2022-01-09 07:59:00+00:00,315.9946,3.2,12.49,47.84626,-54.09684
2022-01-09 08:09:00+00:00,313.3981,3.25,12.49,47.84626,-54.09684
2022-01-09 08:19:00+00:00,305.513,3.3,12.49,47.84626,-54.09684
2022-01-09 08:29:00+00:00,297.2697,3.31,12.49,47.84626,-54.09684
2022-01-09 08:39:00+00:00,293.448,3.39,12.49,47.84626,-54.09684
2022-01-09 08:49:00+00:00,291.7064,3.5,12.49,47.84626,-54.09684
2022-01-09 08:59:00+00:00,285.1564,3.5,12.49,47.84626,-54.09684
2022-01-09 09:09:00+00:00,283.303,3.49,12.49,47.84626,-54.09684
2022-01-09 09:19:00+00:00,285.2081,3.5,12.49,47.84626,-54.09684
2022-01-09 09:29:00+00:00,280.1947,3.46,12.49,47.84626,-54.09684
2022-01-09 09:39:00+00:00,274.373,3.5,12.49,47.84626,-54.09684
2022-01-09 09:49:00+00:00,279.0414,3.38,12.49,47.84626,-54.09684
2022-01-09 09:59:00+00:00,285.7198,3.5,12.49,47.84626,-54.09684
2022-01-09 10:09:00+00:00,274.7947,3.5,12.49,47.84626,-54.09684
2022-01-09 10:19:01+00:00,261.8498,3.5,12.41,47.84626,-54.09684
2022-01-09 10:29:01+00:00,262.9981,3.5,12.41,47.84626,-54.09684
2022-01-09 10:39:01+00:00,265.2931,3.5,12.41,47.84626,-54.09684
2022-01-09 10:49:01+00:00,258.6581,3.5,12.41,47.84626,-54.09684
2022-01-09 10:59:01+00:00,254.5997,3.5,12.41,47.84626,-54.09684
2022-01-09 11:09:01+00:00,260.8348,3.5,12.41,47.84626,-54.09684
2022-01-09 11:19:00+00:00,265.1414,3.5,12.41,47.84626,-54.09684
2022-01-09 11:29:00+00:00,262.3131,3.47,12.41,47.84626,-54.09684
2022-01-09 11:39:00+00:00,263.3948,3.48,12.41,47.84626,-54.09684
2022-01-09 11:49:00+00:00,265.6197,3.47,12.41,47.84626,-54.09684
2022-01-09 11:59:00+00:00,263.2297,3.44,12.41,47.84626,-54.09684
2022-01-09 12:09:00+00:00,263.0214,3.47,12.41,47.84626,-54.09684
2022-01-09 12:19:00+00:00,269.4764,3.49,12.57,47.84626,-54.09684
2022-01-09 12:29:00+00:00,274.9231,3.39,12.57,47.84626,-54.09684
2022-01-09 12:39:00+00:00,269.2814,3.2,12.57,47.84626,-54.09684
2022-01-09 12:49:00+00:00,266.0098,3.28,12.57,47.84626,-54.09684
2022-01-09 12:59:00+00:00,268.7731,3.3,12.57,47.84626,-54.09684
2022-01-09 13:09:00+00:00,266.6581,3.36,12.57,47.84626,-54.09684
2022-01-09 13:19:00+00:00,262.618,3.36,13.53,47.84626,-54.09684
2022-01-09 13:29:00+00:00,269.2314,3.4,13.53,47.84626,-54.09684
2022-01-09 13:39:00+00:00,271.4031,3.4,13.53,47.84626,-54.09684
2022-01-09 13:49:00+00:00,268.2814,3.4,13.53,47.84626,-54.09684
2022-01-09 13:59:00+00:00,272.5031,3.45,13.53,47.84626,-54.09684
2022-01-09 14:09:00+00:00,281.3997,3.48,13.53,47.84626,-54.09684
2022-01-09 14:19:00+00:00,284.403,3.4,14.88,47.84626,-54.09684
2022-01-09 14:29:00+00:00,290.2164,3.4,14.88,47.84626,-54.09684
2022-01-09 14:39:00+00:00,301.1329,3.4,14.88,47.84626,-54.09684
2022-01-09 14:49:00+00:00,307.0864,3.49,14.88,47.84626,-54.09684
2022-01-09 14:59:00+00:00,308.923,3.55,14.88,47.84626,-54.09684
2022-01-09 15:09:00+00:00,315.878,3.6,14.88,47.84626,-54.09684
2022-01-09 15:19:00+00:00,318.2896,3.6,14.8,47.84626,-54.09684
2022-01-09 15:29:00+00:00,311.7396,3.6,14.8,47.84626,-54.09684
2022-01-09 15:39:00+00:00,313.6597,3.65,14.8,47.84626,-54.09684
2022-01-09 15:49:00+00:00,322.5563,3.62,14.8,47.84626,-54.09684
2022-01-09 15:59:00+00:00,324.4363,3.59,14.8,47.84626,-54.09684
2022-01-09 16:09:00+00:00,321.2713,3.59,14.8,47.84626,-54.09684
2022-01-09 16:19:00+00:00,327.093,3.6,14.72,47.84626,-54.09684
2022-01-09 16:29:00+00:00,334.2913,3.6,14.72,47.84626,-54.09684
2022-01-09 16:39:00+00:00,333.2164,3.5,14.72,47.84626,-54.09684
2022-01-09 16:49:00+00:00,325.5031,3.5,14.72,47.84626,-54.09684
2022-01-09 16:59:00+00:00,325.738,3.52,14.72,47.84626,-54.09684
2022-01-09 17:09:00+00:00,327.2797,3.57,14.72,47.84626,-54.09684
2022-01-09 17:19:00+00:00,328.7814,3.53,14.64,47.84626,-54.09684
2022-01-09 17:29:00+00:00,327.6963,3.5,14.64,47.84626,-54.09684
2022-01-09 17:39:00+00:00,328.1046,3.5,14.64,47.84626,-54.09684
2022-01-09 17:49:00+00:00,327.7346,3.5,14.64,47.84626,-54.09684
2022-01-09 17:59:00+00:00,328.4813,3.5,14.64,47.84626,-54.09684
2022-01-09 18:09:00+00:00,326.2646,3.56,14.64,47.84626,-54.09684
2022-01-09 18:19:00+00:00,322.6647,3.55,14.56,47.84626,-54.09684
2022-01-09 18:29:00+00:00,318.488,3.53,14.56,47.84626,-54.09684
2022-01-09 18:39:00+00:00,318.4747,3.56,14.56,47.84626,-54.09684
2022-01-09 18:49:00+00:00,309.2213,3.55,14.56,47.84626,-54.09684
2022-01-09 18:59:00+00:00,300.7047,3.58,14.56,47.84626,-54.09684
2022-01-09 19:09:00+00:00,294.878,3.57,14.56,47.84626,-54.09684
2022-01-09 19:19:00+00:00,285.313,3.55,14.24,47.84626,-54.09684
2022-01-09 19:29:00+00:00,275.0831,3.52,14.24,47.84626,-54.09684
2022-01-09 19:39:00+00:00,274.2797,3.5,14.24,47.84626,-54.09684
2022-01-09 19:49:00+00:00,273.5264,3.5,14.24,47.84626,-54.09684
2022-01-09 19:59:00+00:00,266.3465,3.5,14.24,47.84626,-54.09684
2022-01-09 20:09:00+00:00,258.0681,3.57,14.24,47.84626,-54.09684
2022-01-09 20:19:00+00:00,251.5747,3.6,13.6,47.84626,-54.09684
2022-01-09 20:29:00+00:00,245.1447,3.6,13.6,47.84626,-54.09684
2022-01-09 20:39:00+00:00,235.7397,3.6,13.6,47.84626,-54.09684
2022-01-09 20:49:00+00:00,227.3264,3.6,13.6,47.84626,-54.09684
2022-01-09 20:59:00+00:00,218.9398,3.6,13.6,47.84626,-54.09684
2022-01-09 21:09:00+00:00,213.0598,3.6,13.6,47.84626,-54.09684
2022-01-09 21:19:00+00:00,208.3981,3.6,13.21,47.84626,-54.09684
2022-01-09 21:29:00+00:00,206.4865,3.59,13.21,47.84626,-54.09684
2022-01-09 21:39:00+00:00,203.6464,3.57,13.21,47.84626,-54.09684
2022-01-09 21:49:00+00:00,198.4215,3.57,13.21,47.84626,-54.09684
2022-01-09 21:59:00+00:00,196.2115,3.58,13.21,47.84626,-54.09684
2022-01-09 22:09:00+00:00,202.5298,3.57,13.21,47.84626,-54.09684
2022-01-09 22:19:00+00:00,202.6014,3.58,12.81,47.84626,-54.09684
2022-01-09 22:29:00+00:00,195.6348,3.6,12.81,47.84626,-54.09684
2022-01-09 22:39:00+00:00,197.6647,3.6,12.81,47.84626,-54.09684
2022-01-09 22:49:00+00:00,208.0148,3.54,12.81,47.84626,-54.09684
2022-01-09 22:59:00+00:00,212.6014,3.5,12.81,47.84626,-54.09684
2022-01-09 23:09:00+00:00,210.7731,3.49,12.81,47.84626,-54.09684
2022-01-09 23:19:00+00:00,212.8548,3.45,12.65,47.84626,-54.09684
2022-01-09 23:29:00+00:00,220.8114,3.46,12.65,47.84626,-54.09684
2022-01-09 23:39:00+00:00,225.8031,3.49,12.65,47.84626,-54.09684
2022-01-09 23:49:00+00:00,226.7248,3.5,12.65,47.84626,-54.09684
2022-01-09 23:59:00+00:00,228.273,3.58,12.65,47.84626,-54.09684
